GW3011 Weather Reports


time (UTC)temp
C
wind
direction
speed
KPH
gust
KPH
rain 1hr
cm
rain 24hr
cm
rain mn
cm
humidity
%
barometer
mb
20260903015942 21 50 0.0 0.0 0.00 0.00 0.00 93 1017.4
20260903015437 21 307 0.0 0.0 0.00 0.00 0.00 93 1017.6
20260903014933 21 286 0.0 0.0 0.00 0.00 0.00 93 1017.9
20260903014432 21 282 0.0 0.0 0.00 0.00 0.00 93 1018.0
20260903013927 21 300 0.0 0.0 0.00 0.00 0.00 92 1018.3
20260903013427 20 285 0.0 0.0 0.00 0.00 0.00 92 1018.3
20260903012926 20 266 0.0 0.0 0.00 0.00 0.00 92 1018.0
20260903012426 20 285 0.0 0.0 0.00 0.00 0.00 92 1018.2
20260903011925 20 253 0.0 0.0 0.00 0.00 0.00 92 1018.4
20260903011420 20 322 0.0 0.0 0.00 0.00 0.00 91 1018.2
20260903010915 20 278 0.0 0.0 0.00 0.00 0.00 91 1018.2
20260903010410 20 32 0.0 0.0 0.00 0.00 0.00 91 1018.3
20260903005908 20 254 0.0 0.0 0.00 0.00 0.00 91 1018.5
20260903005403 20 200 0.0 0.0 0.00 0.00 0.00 91 1018.6
20260903004900 20 279 0.0 0.0 0.00 0.00 0.00 91 1018.5
20260903004355 20 295 0.0 0.0 0.00 0.00 0.00 91 1018.9
20260903003850 20 280 0.0 0.0 0.00 0.00 0.00 91 1018.9
20260903003345 20 277 0.0 0.0 0.00 0.00 0.00 91 1018.7
20260903002844 20 269 0.0 0.0 0.00 0.00 0.00 90 1018.5
20260903002339 20 26 0.0 0.0 0.00 0.00 0.00 90 1018.5
20260903001833 20 138 0.0 0.0 0.00 0.00 0.00 90 1018.1
20260903001329 20 212 0.0 0.0 0.00 0.00 0.00 90 1018.3
20260903000829 20 219 0.0 0.0 0.00 0.00 0.00 90 1018.2
20260903000325 20 197 0.0 0.0 0.00 0.00 0.00 90 1018.1
20260902235821 20 264 0.0 0.0 0.00 0.00 0.00 90 1017.9
20260902235317 20 197 0.0 0.0 0.00 0.00 0.00 90 1018.0
20260902234811 20 290 0.0 0.0 0.00 0.00 0.00 90 1018.1
20260902234306 20 14 0.0 0.0 0.00 0.00 0.00 91 1017.9
20260902233805 20 24 0.0 0.0 0.00 0.00 0.00 91 1017.9
20260902233304 20 279 0.0 0.0 0.00 0.00 0.00 90 1018.1
20260902232803 20 8 0.0 0.0 0.00 0.00 0.00 91 1017.7
20260902232258 20 287 0.0 0.0 0.00 0.00 0.00 91 1017.8
20260902231757 20 292 0.0 0.0 0.00 0.00 0.00 90 1017.7
20260902231252 20 289 0.0 0.0 0.00 0.00 0.00 90 1018.0
20260902230747 20 271 0.0 0.0 0.00 0.00 0.00 90 1017.8
20260902230245 21 281 0.0 0.0 0.00 0.00 0.00 90 1017.7
20260902225735 21 315 0.0 0.0 0.00 0.00 0.00 90 1018.0
20260902225230 21 156 0.0 0.0 0.00 0.00 0.00 90 1017.9
20260902224729 21 285 0.0 0.0 0.00 0.00 0.00 90 1018.3
20260902224224 21 329 0.0 0.0 0.00 0.00 0.00 89 1018.3
20260902223721 21 54 0.0 0.0 0.00 0.00 0.00 89 1018.4
20260902223219 21 4 0.0 0.0 0.00 0.00 0.00 89 1018.5
20260902222718 21 276 0.0 0.0 0.00 0.00 0.00 89 1018.5
20260902222213 21 233 0.0 0.0 0.00 0.00 0.00 89 1018.4
20260902221708 21 255 0.0 0.0 0.00 0.00 0.00 89 1018.3
20260902221206 21 310 0.0 0.0 0.00 0.00 0.00 88 1018.6
20260902220702 21 267 0.0 0.0 0.00 0.00 0.00 89 1018.7
20260902220157 21 323 0.0 0.0 0.00 0.00 0.00 89 1019.0
20260902215653 21 184 0.0 0.0 0.00 0.00 0.00 89 1019.0
20260902215148 21 12 0.0 0.0 0.00 0.00 0.00 89 1019.0
20260902214643 21 296 0.0 0.0 0.00 0.00 0.00 89 1019.2
20260902214142 21 330 0.0 0.0 0.00 0.00 0.00 89 1019.1
20260902213638 21 306 0.0 0.0 0.00 0.00 0.00 89 1019.1
20260902213137 21 259 0.0 0.0 0.00 0.00 0.00 89 1018.9
20260902212632 21 307 0.0 0.0 0.00 0.00 0.00 89 1018.8
20260902212128 21 332 0.0 0.0 0.00 0.00 0.00 89 1018.8
20260902211625 21 310 0.0 0.0 0.00 0.00 0.00 89 1018.7
20260902211120 21 308 0.0 0.0 0.00 0.00 0.00 89 1018.6
20260902210619 20 325 0.0 0.0 0.00 0.00 0.00 88 1018.8
20260902210115 21 210 0.0 0.0 0.00 0.00 0.00 89 1018.8
20260902205613 21 316 0.0 0.0 0.00 0.00 0.00 89 1018.7
20260902205108 21 292 0.0 0.0 0.00 0.00 0.00 89 1018.5
20260902204603 21 306 0.0 0.0 0.00 0.00 0.00 90 1018.6
20260902204057 21 333 0.0 0.0 0.00 0.00 0.00 90 1018.7
20260902203553 21 265 0.0 0.0 0.00 0.00 0.00 91 1018.6
20260902203052 21 290 0.0 0.0 0.00 0.00 0.00 90 1019.1
20260902202548 21 79 0.0 0.0 0.00 0.00 0.00 90 1018.8
20260902202045 21 222 0.0 0.0 0.00 0.00 0.00 90 1019.0
20260902201540 21 274 0.0 0.0 0.00 0.00 0.00 90 1019.0
20260902201039 21 285 0.0 0.0 0.00 0.00 0.00 90 1019.0
20260902200534 21 290 0.0 0.0 0.00 0.00 0.00 90 1019.0
20260902200031 21 304 0.0 0.0 0.00 0.00 0.00 90 1019.0
20260902195526 21 275 0.0 0.0 0.00 0.00 0.00 90 1019.0
20260902195024 21 291 0.0 0.0 0.00 0.00 0.00 90 1019.0
20260902194519 21 320 0.0 0.0 0.00 0.00 0.00 90 1019.3
20260902194014 21 12 0.0 0.0 0.00 0.00 0.00 90 1019.3
20260902193510 21 70 0.0 0.0 0.00 0.00 0.00 90 1019.0
20260902193009 21 312 0.0 0.0 0.00 0.00 0.00 91 1019.2
20260902192507 21 295 0.0 0.0 0.00 0.00 0.00 91 1019.2
20260902192006 21 306 0.0 0.0 0.00 0.00 0.00 89 1019.1
20260902191502 21 260 0.0 0.0 0.00 0.00 0.00 89 1019.3
20260902190956 21 310 0.0 0.0 0.00 0.00 0.00 84 1019.4
20260902190453 21 316 0.0 0.0 0.00 0.00 0.00 84 1019.1
20260902185948 21 289 0.0 0.0 0.00 0.00 0.00 84 1019.0
20260902185444 21 318 0.0 0.0 0.00 0.00 0.00 84 1019.0
20260902184938 21 255 0.0 0.0 0.00 0.00 0.00 84 1018.9
20260902184434 21 274 0.0 0.0 0.00 0.00 0.00 84 1019.0
20260902183929 21 322 0.0 0.0 0.00 0.00 0.00 84 1019.1
20260902183425 21 259 0.0 0.0 0.00 0.00 0.00 83 1019.0
20260902182921 22 358 0.0 0.0 0.00 0.00 0.00 83 1019.0
20260902182417 22 348 0.0 0.0 0.00 0.00 0.00 83 1019.1
20260902181913 22 348 0.0 0.0 0.00 0.00 0.00 82 1019.4
20260902181409 22 290 0.0 0.0 0.00 0.00 0.00 82 1019.2
20260902180903 22 264 0.0 0.0 0.00 0.00 0.00 81 1019.2
20260902180358 22 294 0.0 0.0 0.00 0.00 0.00 81 1019.2
20260902175853 22 20 0.0 0.0 0.00 0.00 0.00 81 1019.3
20260902175348 22 355 0.0 0.0 0.00 0.00 0.00 81 1019.5
20260902174844 22 216 0.0 0.0 0.00 0.00 0.00 81 1019.4
20260902174341 22 301 0.0 0.0 0.00 0.00 0.00 80 1019.5
20260902173831 22 332 0.0 0.0 0.00 0.00 0.00 79 1019.5
20260902173330 22 299 0.0 0.0 0.00 0.00 0.00 80 1019.6
20260902172825 22 313 0.0 0.0 0.00 0.00 0.00 80 1019.5
20260902172324 22 335 0.0 0.0 0.00 0.00 0.00 79 1019.4
20260902171814 22 303 0.0 0.0 0.00 0.00 0.00 79 1019.3
20260902171309 22 286 0.0 0.0 0.00 0.00 0.00 80 1019.4
20260902170806 22 293 0.0 0.0 0.00 0.00 0.00 81 1019.5
20260902170300 22 271 0.0 0.0 0.00 0.00 0.00 81 1019.7
20260902165755 22 293 0.0 0.0 0.00 0.00 0.00 81 1019.9
20260902165249 22 250 0.0 0.0 0.00 0.00 0.00 80 1020.0
20260902164744 22 286 0.0 0.0 0.00 0.00 0.00 80 1019.9
20260902164238 22 14 0.0 0.0 0.00 0.00 0.00 80 1020.0
20260902163733 21 291 0.0 0.0 0.00 0.00 0.00 80 1019.8
20260902163228 21 284 0.0 0.0 0.00 0.00 0.00 81 1019.9
20260902162726 21 314 0.0 0.0 0.00 0.00 0.00 79 1019.6
20260902162221 21 291 0.0 0.0 0.00 0.00 0.00 80 1019.7
20260902161716 22 311 0.0 0.0 0.00 0.00 0.00 78 1019.9
20260902161211 21 325 0.0 0.0 0.00 0.00 0.00 80 1019.8
20260902160708 21 248 0.0 0.0 0.00 0.00 0.00 79 1019.8
20260902160203 21 318 0.0 0.0 0.00 0.00 0.00 79 1019.7
20260902155701 21 328 0.0 0.0 0.00 0.00 0.00 79 1020.0
20260902155159 21 316 0.0 0.0 0.00 0.00 0.00 80 1020.0
20260902154655 21 290 0.0 0.0 0.00 0.00 0.00 80 1020.0
20260902154154 21 263 0.0 0.0 0.00 0.00 0.00 79 1020.0
20260902153649 21 292 0.0 0.0 0.00 0.00 0.00 79 1019.9
20260902153144 21 303 0.0 0.0 0.00 0.00 0.00 80 1019.9
20260902152640 21 343 0.0 0.0 0.00 0.00 0.00 79 1020.1
20260902152135 21 60 0.0 0.0 0.00 0.00 0.00 79 1020.0
20260902151630 21 317 0.0 0.0 0.00 0.00 0.00 79 1020.0
20260902151125 21 245 0.0 0.0 0.00 0.00 0.00 79 1020.1
20260902150621 21 305 0.0 0.0 0.00 0.00 0.00 79 1019.8
20260902150115 21 228 0.0 0.0 0.00 0.00 0.00 79 1019.7
20260902145610 21 288 0.0 0.0 0.00 0.00 0.00 80 1019.8
20260902145109 21 224 0.0 0.0 0.00 0.00 0.00 81 1020.0
20260902144606 20 0 0.0 0.0 0.00 0.00 0.00 82 1020.0
20260902144101 20 278 0.0 0.0 0.00 0.00 0.00 84 1020.3
20260902143556 20 286 0.0 0.0 0.00 0.00 0.00 83 1020.4
20260902143051 20 328 0.0 0.0 0.00 0.00 0.00 83 1020.4
20260902142547 20 304 0.0 0.0 0.00 0.00 0.00 84 1020.3
20260902142042 20 125 0.0 0.0 0.00 0.00 0.00 86 1020.1
20260902141541 20 320 0.0 0.0 0.00 0.00 0.00 85 1020.3
20260902141037 20 187 0.0 0.0 0.00 0.00 0.00 85 1020.1
20260902140532 20 243 0.0 0.0 0.00 0.00 0.00 85 1020.1
20260902140028 20 277 0.0 0.0 0.00 0.00 0.00 84 1019.8
20260902135526 20 309 0.0 0.0 0.00 0.00 0.00 85 1019.9
20260902135022 20 212 0.0 0.0 0.00 0.00 0.00 85 1020.2
20260902134517 20 131 0.0 0.0 0.00 0.00 0.00 87 1020.0
20260902134012 20 299 0.0 0.0 0.00 0.00 0.00 86 1019.8
20260902133507 20 248 0.0 0.0 0.00 0.00 0.00 87 1019.5
20260902133007 20 293 0.0 0.0 0.00 0.00 0.00 88 1019.4
20260902132502 20 285 0.0 0.0 0.00 0.00 0.00 89 1019.3
20260902131956 19 300 0.0 0.0 0.00 0.00 0.00 89 1019.8
20260902131453 20 318 0.0 0.0 0.00 0.00 0.00 89 1019.7
20260902130953 19 325 0.0 0.0 0.00 0.00 0.00 90 1019.7
20260902130448 19 171 0.0 0.0 0.00 0.00 0.00 90 1019.7
20260902125943 19 233 0.0 0.0 0.00 0.00 0.00 90 1019.4
20260902125440 19 273 0.0 0.0 0.00 0.00 0.00 91 1019.5
20260902124935 19 335 0.0 0.0 0.00 0.00 0.00 91 1019.6
20260902124431 19 263 0.0 0.0 0.00 0.00 0.00 91 1019.4
20260902123926 19 295 0.0 0.0 0.00 0.00 0.00 92 1019.4
20260902123423 18 268 0.0 0.0 0.00 0.00 0.00 93 1019.3
20260902122920 18 244 0.0 0.0 0.00 0.00 0.00 93 1019.2
20260902122417 18 288 0.0 0.0 0.00 0.00 0.00 93 1019.1
20260902121912 18 259 0.0 0.0 0.00 0.00 0.00 94 1019.4
20260902121407 18 189 0.0 0.0 0.00 0.00 0.00 95 1019.4
20260902120902 18 256 0.0 0.0 0.00 0.00 0.00 95 1019.2
20260902120358 18 326 0.0 0.0 0.00 0.00 0.00 95 1019.2
20260902115858 18 237 0.0 0.0 0.00 0.00 0.00 96 1019.3
20260902115354 18 338 0.0 0.0 0.00 0.00 0.00 97 1019.2
20260902114850 18 234 0.0 0.0 0.00 0.00 0.00 97 1019.4
20260902114345 18 203 0.0 0.0 0.00 0.00 0.00 97 1019.2
20260902113840 18 247 0.0 0.0 0.00 0.00 0.00 97 1019.3
20260902113336 18 273 0.0 0.0 0.00 0.00 0.00 97 1019.1
20260902112835 18 305 0.0 0.0 0.00 0.00 0.00 98 1019.1
20260902112332 18 276 0.0 0.0 0.00 0.00 0.00 98 1019.1
20260902111827 18 283 0.0 0.0 0.00 0.00 0.00 98 1019.2
20260902111324 19 292 0.0 0.0 0.00 0.00 0.00 98 1019.0
20260902110819 19 255 0.0 0.0 0.00 0.00 0.00 98 1018.7
20260902110315 19 278 0.0 0.0 0.00 0.00 0.00 98 1019.3
20260902105814 19 256 0.0 0.0 0.00 0.00 0.00 97 1019.1
20260902105309 19 202 0.0 0.0 0.00 0.00 0.00 97 1018.9
20260902104804 19 214 0.0 0.0 0.00 0.00 0.00 97 1018.9
20260902104301 19 286 0.0 0.0 0.00 0.00 0.00 98 1019.1
20260902103755 19 329 0.0 0.0 0.00 0.00 0.00 98 1018.9
20260902103254 19 284 0.0 0.0 0.00 0.00 0.00 98 1018.8
20260902102750 19 265 0.0 0.0 0.00 0.00 0.00 98 1018.9
20260902102248 18 289 0.0 0.0 0.00 0.00 0.00 98 1018.8
20260902101743 19 274 0.0 0.0 0.00 0.00 0.00 98 1018.5
20260902101238 18 175 0.0 0.0 0.00 0.00 0.00 98 1018.5
20260902100737 19 191 0.0 0.0 0.00 0.00 0.00 98 1018.6
20260902100232 18 253 0.0 0.0 0.00 0.00 0.00 98 1018.5
20260902095732 19 281 0.0 0.0 0.00 0.00 0.00 98 1018.5
20260902095226 19 283 0.0 0.0 0.00 0.00 0.00 98 1018.2
20260902094721 19 270 0.0 0.0 0.00 0.00 0.00 98 1018.2
20260902094217 19 197 0.0 0.0 0.00 0.00 0.00 98 1018.3
20260902093715 19 253 0.0 0.0 0.00 0.00 0.00 98 1018.3
20260902093211 19 204 0.0 0.0 0.00 0.00 0.00 98 1018.4
20260902092706 19 193 0.0 0.0 0.00 0.00 0.00 98 1018.4
20260902092201 19 302 0.0 0.0 0.00 0.00 0.00 98 1018.3
20260902091701 19 315 0.0 0.0 0.00 0.00 0.00 98 1018.3
20260902091158 19 193 0.0 0.0 0.00 0.00 0.00 99 1018.4
20260902090654 19 163 0.0 0.0 0.00 0.00 0.00 98 1018.1
20260902090152 19 245 0.0 0.0 0.00 0.00 0.00 98 1018.3
20260902085647 19 281 0.0 0.0 0.00 0.00 0.00 98 1018.2
20260902085142 19 191 0.0 0.0 0.00 0.00 0.00 98 1018.0
20260902084638 19 151 0.0 0.0 0.00 0.00 0.00 97 1018.3
20260902084134 19 168 0.0 0.0 0.00 0.00 0.00 96 1018.0
20260902083629 19 196 0.0 0.0 0.00 0.00 0.00 96 1018.1
20260902083128 19 145 0.0 0.0 0.00 0.00 0.00 96 1018.2
20260902082624 19 299 0.0 0.0 0.00 0.00 0.00 95 1018.1
20260902082120 19 288 0.0 0.0 0.00 0.00 0.00 95 1018.3
20260902081617 19 211 0.0 0.0 0.00 0.00 0.00 95 1017.8
20260902081116 19 275 0.0 0.0 0.00 0.00 0.00 95 1018.0
20260902080611 19 259 0.0 0.0 0.00 0.00 0.00 95 1017.9
20260902080108 19 286 0.0 0.0 0.00 0.00 0.00 95 1018.0
20260902075608 19 305 0.0 0.0 0.00 0.00 0.00 95 1017.9
20260902075104 19 270 0.0 0.0 0.00 0.00 0.00 96 1018.0
20260902074559 19 260 0.0 0.0 0.00 0.00 0.00 95 1017.8
20260902074054 19 163 0.0 0.0 0.00 0.00 0.00 96 1018.1
20260902073549 19 294 0.0 0.0 0.00 0.00 0.00 96 1017.7
20260902073045 19 327 0.0 0.0 0.00 0.00 0.00 96 1017.6
20260902072541 19 212 0.0 0.0 0.00 0.00 0.00 96 1017.7
20260902072038 19 172 0.0 0.0 0.00 0.00 0.00 96 1017.3
20260902071537 19 161 0.0 0.0 0.00 0.00 0.00 96 1017.5
20260902071034 19 288 0.0 0.0 0.00 0.00 0.00 96 1017.5
20260902070529 19 317 0.0 0.0 0.00 0.00 0.00 96 1017.6
20260902070023 19 125 0.0 0.0 0.00 0.00 0.00 96 1017.4
20260902065517 19 267 0.0 0.0 0.00 0.00 0.00 96 1017.5
20260902065013 19 286 0.0 0.0 0.00 0.00 0.00 96 1017.4
20260902064509 19 232 0.0 0.0 0.00 0.00 0.00 96 1017.3
20260902064004 19 326 0.0 0.0 0.00 0.00 0.00 96 1017.5
20260902063503 19 276 0.0 0.0 0.00 0.00 0.00 96 1017.6
20260902062959 19 158 0.0 0.0 0.00 0.00 0.00 96 1017.5
20260902062457 19 214 0.0 0.0 0.00 0.00 0.00 96 1017.6
20260902061952 19 213 0.0 0.0 0.00 0.00 0.00 96 1017.7
20260902061442 19 333 0.0 0.0 0.00 0.00 0.00 96 1017.7
20260902060938 19 283 0.0 0.0 0.00 0.00 0.00 97 1017.8
20260902060434 19 247 0.0 0.0 0.00 0.00 0.00 97 1017.7
20260902055930 19 322 0.0 0.0 0.00 0.00 0.00 96 1017.7
20260902055426 19 161 0.0 0.0 0.00 0.00 0.00 97 1018.0
20260902054921 19 226 0.0 0.0 0.00 0.00 0.00 96 1017.9
20260902054416 19 286 0.0 0.0 0.00 0.00 0.00 96 1017.9
20260902053911 19 250 0.0 0.0 0.00 0.00 0.00 96 1017.7
20260902053407 19 296 0.0 0.0 0.00 0.00 0.00 96 1018.0
20260902052905 20 272 0.0 0.0 0.00 0.00 0.00 96 1018.0
20260902052401 20 170 0.0 0.0 0.00 0.00 0.00 96 1018.0
20260902051856 20 182 0.0 0.0 0.00 0.00 0.00 96 1017.9
20260902051356 20 169 0.0 0.0 0.00 0.00 0.00 97 1018.0
20260902050850 20 269 0.0 0.0 0.00 0.00 0.00 97 1017.9
20260902050349 20 301 0.0 0.0 0.00 0.00 0.00 97 1017.9
20260902045844 20 285 0.0 0.0 0.00 0.00 0.00 97 1017.8
20260902045340 20 256 0.0 0.0 0.00 0.00 0.00 98 1017.6
20260902044836 20 334 0.0 0.0 0.00 0.00 0.00 97 1017.5
20260902044331 20 233 0.0 0.0 0.00 0.00 0.00 98 1017.7
20260902043827 20 285 0.0 0.0 0.00 0.00 0.00 98 1017.6
20260902043321 20 296 0.0 0.0 0.00 0.00 0.00 98 1017.6
20260902042821 20 234 0.0 0.0 0.00 0.00 0.00 98 1017.4
20260902042316 20 172 0.0 0.0 0.00 0.00 0.00 98 1017.4
20260902041811 20 225 0.0 0.0 0.00 0.00 0.00 99 1017.4
20260902041311 20 290 0.0 0.0 0.00 0.00 0.00 99 1017.5
20260902040809 20 127 0.0 0.0 0.00 0.00 0.00 99 1017.5
20260902040305 20 264 0.0 0.0 0.00 0.00 0.00 99 1017.5
20260902035804 20 293 0.0 0.0 0.00 0.00 0.00 99 1017.2
20260902035300 20 217 0.0 0.0 0.00 0.00 0.00 99 1017.0
20260902034758 19 327 0.0 0.0 0.00 0.00 0.00 99 1017.0
20260902034254 19 297 0.0 0.0 0.00 0.00 0.00 99 1016.7
20260902033752 19 185 0.0 0.0 0.00 0.00 0.00 99 1016.7
20260902033247 19 281 0.0 0.0 0.00 0.00 0.00 99 1016.5
20260902032745 19 287 0.0 0.0 0.00 0.00 0.00 99 1016.4
20260902032241 19 288 0.0 0.0 0.00 0.00 0.00 99 1016.3
20260902031740 19 336 0.0 0.0 0.00 0.00 0.00 99 1016.4
20260902031236 19 283 0.0 0.0 0.00 0.00 0.00 99 1016.3
20260902030731 19 20 0.0 0.0 0.00 0.00 0.00 99 1016.5
20260902030226 19 229 0.0 0.0 0.00 0.00 0.00 99 1016.6
20260902025725 19 275 0.0 0.0 0.00 0.74 0.74 99 1016.4
20260902025220 19 290 0.0 0.0 0.00 0.74 0.74 99 1016.5
20260902024715 19 301 0.0 0.0 0.00 0.74 0.74 99 1016.6
20260902024211 19 269 0.0 0.0 0.00 0.74 0.74 99 1016.6
20260902023706 19 262 0.0 0.0 0.00 0.74 0.74 99 1016.4
20260902023201 19 127 0.0 0.0 0.00 0.74 0.74 99 1016.5
20260902022701 19 251 0.0 0.0 0.00 0.74 0.74 99 1016.2
20260902022156 19 324 0.0 0.0 0.00 0.74 0.74 99 1016.4
20260902021652 19 312 0.0 0.0 0.00 0.74 0.74 99 1016.2
20260902021146 19 254 0.0 0.0 0.00 0.74 0.74 99 1015.8
20260902020642 19 248 0.0 0.0 0.00 0.74 0.74 99 1015.8
20260902020138 19 243 0.0 0.0 0.00 0.74 0.74 99 1015.8